Simultaneous Nadir Overpasses (SNOs) Predictions

Prediction of SNOs between METOP-A and NOAA-19 Satellite Orbit:

Table of predicted SNOs for the next 14.0 days since TLE Epoch: 3/30/2017
Index Date (METOP-A) Time (METOP-A) Lat,Lon (METOP-A) SZA (METOP-A ) Date (NOAA-19) Time (NOAA-19) Lat,Lon (NOAA-19) SZA (NOAA-19 ) Distance(km) Time Diff (sec)
1 04/05/2017 06:32:59 -77.42, -92.99 108.78 04/05/2017 06:31:52 -77.45, -96.22 108.79 78.18 67
2 04/05/2017 07:23:47 77.06, 72.80 70.83 04/05/2017 07:22:47 77.05, 72.87 70.82 2.09 60
3 04/05/2017 08:14:29 -77.06,-119.89 109.19 04/05/2017 08:13:44 -77.05,-119.87 109.20 0.98 45
4 04/05/2017 09:05:09 77.04, 47.38 70.78 04/05/2017 09:04:49 77.07, 47.30 70.80 3.25 20
5 04/05/2017 09:55:51 -77.04,-145.31 109.24 04/05/2017 09:55:45 -77.02,-145.25 109.26 2.42 6
6 04/05/2017 10:46:31 77.02, 21.96 70.73 04/05/2017 10:46:50 77.04, 21.92 70.75 1.89 19
7 04/05/2017 11:37:13 -77.02,-170.72 109.29 04/05/2017 11:37:47 -77.04,-170.81 109.27 2.74 34
8 04/05/2017 12:27:53 77.01, -3.45 70.69 04/05/2017 12:28:51 77.01, -3.46 70.70 0.57 58
9 04/05/2017 13:18:35 -77.00, 163.86 109.33 04/05/2017 13:19:48 -77.01, 163.81 109.32 1.39 73




NCC Satellite Simultaneous Nadir Overpasses (SNOs) Prediction Service
